Погода в Долаково

Россия / Республика Ингушетия     43°14′17″N   44°36′10″E
темп.,
°C
ветер,
м/с
пор.,
м/с
влажн.,
%
обл.,
%
осадки,
мм/ч
давл.,
гПа
погр.,
м
1 августа, вс
вс100:00+19ююв229163 3.3 101217
03:00+18ююв118844 5.4 101211
06:00+19ююв11801 0.3 101224
09:00+26св00550 0.3 1012372
12:00+30всв12400 0.0 10111717
15:00+31в233517 0.0 10092343
18:00+28юв2352100 0.0 101044
21:00+22зюз1168100 0.0 101111
2 августа, пн
пн200:00+21ю1169100 0.0 101111
03:00+20ююз116898 0.0 101011
06:00+21ююв116891 0.0 101115
09:00+26зсз22555 0.5 1012377
12:00+31сз11445 0.0 10111485
15:00+31юз2242100 0.0 10092118
18:00+20сз6788100 20.4 1012226
21:00+20ю118481 21.1 101215
3 августа, вт
вт300:00+20ююв117987 0.0 101111
03:00+19ю11772 0.0 101211
06:00+20ююв11720 0.0 101312
09:00+26зюз11520 0.0 1013286
12:00+30сз11420 0.0 10121040
15:00+31з21380 0.0 10111456
18:00+29зюз12536 0.0 101122
21:00+23юз226523 0.0 101315
4 августа, ср
ср400:00+22ю12650 0.0 101312
03:00+21ююв22600 0.0 101312
06:00+22ююз116340 0.0 101412
09:00+28з23460 0.0 1015482
12:00+31зсз22380 0.0 10131024
15:00+33сз12330 0.0 10121622
18:00+31юз114682 0.0 101313
21:00+26ю225499 0.1 101416
5 августа, чт
чт500:00+22зюз117021 0.4 101411
03:00+21зсз11710 0.4 101411
06:00+20зсз22780 0.0 101668
09:00+25зсз21610 0.0 1017666
12:00+29ююв12490 0.0 10151194
15:00+31в13412 0.0 10131922
18:00+30вюв11520 0.0 101221
21:00+23св1167100 0.4 101411